| time (UTC) | temp F | wind direction | speed knots | gust knots | rain 1hr in | rain 24hr in | rain mn in | humidity % | barometer mb |
| 20260507044721 | 55 | 88 | 2.6 | 3.5 | 0.00 | 0.02 | 0.02 | 77 | 1014.7 |
| 20260507044217 | 55 | 79 | 1.7 | 2.6 | 0.00 | 0.02 | 0.02 | 76 | 1014.8 |
| 20260507043714 | 55 | 54 | 2.6 | 2.6 | 0.00 | 0.02 | 0.02 | 76 | 1014.5 |
| 20260507043211 | 55 | 53 | 1.7 | 2.6 | 0.00 | 0.02 | 0.02 | 75 | 1014.5 |
| 20260507042707 | 55 | 79 | 0.9 | 0.9 | 0.00 | 0.02 | 0.02 | 75 | 1014.8 |
| 20260507042202 | 55 | 72 | 2.6 | 5.2 | 0.00 | 0.02 | 0.02 | 75 | 1014.5 |
| 20260507041659 | 56 | 78 | 1.7 | 2.6 | 0.00 | 0.02 | 0.02 | 74 | 1014.4 |
| 20260507041156 | 56 | 46 | 2.6 | 3.5 | 0.00 | 0.02 | 0.02 | 74 | 1014.3 |
| 20260507040653 | 56 | 37 | 2.6 | 3.5 | 0.00 | 0.02 | 0.02 | 74 | 1014.5 |
| 20260507040149 | 56 | 67 | 2.6 | 3.5 | 0.00 | 0.02 | 0.02 | 74 | 1014.4 |
| 20260507035645 | 56 | 85 | 0.9 | 0.9 | 0.00 | 0.02 | 0.02 | 73 | 1014.2 |
| 20260507035141 | 56 | 65 | 3.5 | 5.2 | 0.00 | 0.02 | 0.02 | 73 | 1014.2 |
| 20260507034638 | 56 | 60 | 1.7 | 2.6 | 0.00 | 0.02 | 0.02 | 73 | 1014.2 |
| 20260507034136 | 56 | 103 | 2.6 | 6.1 | 0.00 | 0.02 | 0.02 | 73 | 1014.2 |
| 20260507033634 | 57 | 45 | 4.3 | 5.2 | 0.00 | 0.02 | 0.02 | 73 | 1014.0 |
| 20260507033131 | 57 | 40 | 3.5 | 5.2 | 0.00 | 0.02 | 0.02 | 72 | 1013.9 |
| 20260507032629 | 57 | 61 | 5.2 | 7.0 | 0.00 | 0.02 | 0.02 | 72 | 1013.8 |
| 20260507032124 | 57 | 56 | 3.5 | 3.5 | 0.00 | 0.02 | 0.02 | 72 | 1013.6 |
| 20260507031621 | 57 | 43 | 7.0 | 7.0 | 0.00 | 0.02 | 0.02 | 72 | 1013.6 |
| 20260507031113 | 57 | 50 | 5.2 | 7.0 | 0.00 | 0.02 | 0.02 | 72 | 1013.6 |
| 20260507030609 | 57 | 42 | 5.2 | 6.1 | 0.00 | 0.02 | 0.02 | 72 | 1013.6 |
| 20260507030107 | 57 | 43 | 2.6 | 3.5 | 0.00 | 0.02 | 0.02 | 72 | 1013.4 |
| 20260507025604 | 57 | 43 | 4.3 | 6.1 | 0.00 | 0.02 | 0.02 | 72 | 1013.4 |
| 20260507025101 | 57 | 32 | 5.2 | 5.2 | 0.00 | 0.02 | 0.02 | 71 | 1013.3 |
| 20260507024559 | 57 | 39 | 4.3 | 5.2 | 0.00 | 0.02 | 0.02 | 71 | 1013.1 |
| 20260507024056 | 58 | 45 | 3.5 | 5.2 | 0.00 | 0.02 | 0.02 | 71 | 1013.2 |
| 20260507023551 | 58 | 41 | 3.5 | 3.5 | 0.00 | 0.02 | 0.02 | 70 | 1013.2 |
| 20260507023049 | 58 | 50 | 4.3 | 5.2 | 0.00 | 0.02 | 0.02 | 69 | 1013.2 |
| 20260507022545 | 59 | 47 | 5.2 | 6.1 | 0.00 | 0.02 | 0.02 | 68 | 1013.1 |
| 20260507022040 | 59 | 45 | 3.5 | 5.2 | 0.00 | 0.02 | 0.02 | 68 | 1013.1 |
| 20260507021536 | 59 | 41 | 2.6 | 3.5 | 0.00 | 0.02 | 0.02 | 68 | 1013.1 |
| 20260507021033 | 59 | 49 | 3.5 | 3.5 | 0.00 | 0.02 | 0.02 | 67 | 1013.0 |
| 20260507020531 | 60 | 55 | 0.0 | 0.9 | 0.00 | 0.02 | 0.02 | 67 | 1013.1 |
| 20260507020027 | 60 | 54 | 2.6 | 2.6 | 0.00 | 0.02 | 0.02 | 66 | 1013.1 |
| 20260507015526 | 60 | 52 | 2.6 | 3.5 | 0.00 | 0.02 | 0.02 | 65 | 1013.0 |
| 20260507015023 | 61 | 49 | 2.6 | 5.2 | 0.00 | 0.02 | 0.02 | 64 | 1013.1 |
| 20260507014519 | 61 | 55 | 3.5 | 3.5 | 0.00 | 0.02 | 0.02 | 64 | 1012.9 |
| 20260507014015 | 61 | 58 | 2.6 | 3.5 | 0.00 | 0.02 | 0.02 | 64 | 1012.9 |
| 20260507013512 | 62 | 57 | 3.5 | 5.2 | 0.00 | 0.02 | 0.02 | 64 | 1012.9 |
| 20260507013009 | 62 | 31 | 3.5 | 5.2 | 0.00 | 0.02 | 0.02 | 63 | 1012.5 |
| 20260507012506 | 63 | 44 | 5.2 | 6.1 | 0.00 | 0.02 | 0.02 | 62 | 1012.8 |
| 20260507012002 | 63 | 28 | 2.6 | 3.5 | 0.00 | 0.02 | 0.02 | 63 | 1012.6 |
| 20260507011500 | 64 | 56 | 4.3 | 6.1 | 0.00 | 0.02 | 0.02 | 62 | 1012.5 |
| 20260507010955 | 64 | 28 | 3.5 | 3.5 | 0.00 | 0.02 | 0.02 | 61 | 1012.2 |
| 20260507010450 | 65 | 43 | 6.1 | 7.0 | 0.00 | 0.02 | 0.02 | 60 | 1012.1 |
| 20260507005947 | 65 | 66 | 2.6 | 3.5 | 0.00 | 0.02 | 0.02 | 59 | 1012.0 |
| 20260507005445 | 66 | 51 | 3.5 | 3.5 | 0.00 | 0.02 | 0.02 | 59 | 1012.2 |
| 20260507004941 | 66 | 45 | 3.5 | 6.1 | 0.00 | 0.02 | 0.02 | 60 | 1012.2 |
| 20260507004437 | 66 | 49 | 2.6 | 2.6 | 0.00 | 0.02 | 0.02 | 61 | 1012.2 |
| 20260507003935 | 67 | 44 | 1.7 | 0.9 | 0.00 | 0.02 | 0.02 | 59 | 1012.1 |
| 20260507003430 | 67 | 69 | 0.9 | 0.9 | 0.00 | 0.02 | 0.02 | 59 | 1012.1 |
| 20260507002925 | 67 | 79 | 0.9 | 0.9 | 0.00 | 0.02 | 0.02 | 58 | 1012.1 |
| 20260507002422 | 67 | 75 | 2.6 | 2.6 | 0.00 | 0.02 | 0.02 | 58 | 1012.1 |
| 20260507001914 | 68 | 66 | 2.6 | 3.5 | 0.00 | 0.02 | 0.02 | 57 | 1011.9 |
| 20260507001411 | 68 | 60 | 0.9 | 0.9 | 0.00 | 0.02 | 0.02 | 57 | 1011.8 |
| 20260507000908 | 68 | 44 | 1.7 | 2.6 | 0.00 | 0.02 | 0.02 | 56 | 1011.8 |
| 20260507000405 | 68 | 90 | 2.6 | 3.5 | 0.00 | 0.02 | 0.02 | 56 | 1011.8 |
| 20260506235859 | 68 | 81 | 0.9 | 0.9 | 0.00 | 0.02 | 0.02 | 56 | 1011.9 |
| 20260506235356 | 69 | 94 | 1.7 | 2.6 | 0.00 | 0.02 | 0.02 | 55 | 1011.8 |
| 20260506234852 | 70 | 77 | 1.7 | 5.2 | 0.00 | 0.02 | 0.02 | 53 | 1011.7 |
| 20260506234350 | 70 | 100 | 1.7 | 2.6 | 0.00 | 0.02 | 0.02 | 54 | 1011.8 |
| 20260506233848 | 70 | 66 | 4.3 | 5.2 | 0.00 | 0.02 | 0.02 | 52 | 1011.7 |
| 20260506233343 | 69 | 36 | 4.3 | 5.2 | 0.00 | 0.02 | 0.02 | 53 | 1011.7 |
| 20260506232841 | 69 | 64 | 5.2 | 6.1 | 0.00 | 0.02 | 0.02 | 53 | 1011.9 |
| 20260506232336 | 69 | 34 | 2.6 | 3.5 | 0.00 | 0.02 | 0.02 | 55 | 1011.9 |
| 20260506231832 | 70 | 27 | 3.5 | 3.5 | 0.00 | 0.02 | 0.02 | 53 | 1011.4 |
| 20260506231330 | 70 | 30 | 3.5 | 3.5 | 0.00 | 0.02 | 0.02 | 53 | 1011.4 |
| 20260506230827 | 70 | 74 | 3.5 | 3.5 | 0.00 | 0.02 | 0.02 | 52 | 1011.4 |
| 20260506230319 | 70 | 82 | 5.2 | 5.2 | 0.00 | 0.02 | 0.02 | 52 | 1011.2 |
| 20260506225815 | 71 | 40 | 5.2 | 6.1 | 0.00 | 0.02 | 0.02 | 52 | 1011.2 |
| 20260506225312 | 71 | 31 | 4.3 | 6.1 | 0.00 | 0.02 | 0.02 | 51 | 1011.2 |
| 20260506224809 | 71 | 27 | 3.5 | 5.2 | 0.00 | 0.02 | 0.02 | 52 | 1011.2 |
| 20260506224306 | 69 | 50 | 3.5 | 3.5 | 0.00 | 0.02 | 0.02 | 54 | 1011.2 |
| 20260506223803 | 70 | 87 | 3.5 | 5.2 | 0.00 | 0.02 | 0.02 | 53 | 1011.1 |
| 20260506223258 | 70 | 46 | 3.5 | 3.5 | 0.00 | 0.02 | 0.02 | 56 | 1011.2 |
| 20260506222755 | 69 | 47 | 1.7 | 2.6 | 0.00 | 0.02 | 0.02 | 54 | 1011.1 |
| 20260506222250 | 69 | 71 | 7.0 | 8.7 | 0.00 | 0.02 | 0.02 | 53 | 1011.1 |
| 20260506221748 | 69 | 43 | 7.0 | 7.0 | 0.00 | 0.02 | 0.02 | 53 | 1011.2 |
| 20260506221246 | 68 | 31 | 2.6 | 2.6 | 0.00 | 0.02 | 0.02 | 54 | 1011.2 |
| 20260506220744 | 68 | 86 | 6.1 | 7.0 | 0.00 | 0.02 | 0.02 | 55 | 1011.2 |
| 20260506220238 | 68 | 107 | 3.5 | 5.2 | 0.00 | 0.02 | 0.02 | 56 | 1011.3 |
| 20260506215736 | 68 | 44 | 3.5 | 5.2 | 0.00 | 0.02 | 0.02 | 55 | 1011.7 |
| 20260506215231 | 68 | 18 | 3.5 | 5.2 | 0.00 | 0.02 | 0.02 | 57 | 1011.4 |
| 20260506214727 | 68 | 76 | 5.2 | 6.1 | 0.00 | 0.02 | 0.02 | 55 | 1011.2 |
| 20260506214225 | 68 | 42 | 3.5 | 6.1 | 0.00 | 0.02 | 0.02 | 57 | 1011.1 |
| 20260506213723 | 68 | 38 | 4.3 | 5.2 | 0.00 | 0.02 | 0.02 | 56 | 1011.3 |
| 20260506213219 | 68 | 53 | 0.9 | 2.6 | 0.00 | 0.02 | 0.02 | 57 | 1011.3 |
| 20260506212716 | 67 | 350 | 4.3 | 5.2 | 0.00 | 0.02 | 0.02 | 57 | 1011.4 |
| 20260506212212 | 67 | 32 | 6.1 | 7.0 | 0.00 | 0.02 | 0.02 | 59 | 1011.4 |
| 20260506211707 | 67 | 106 | 1.7 | 2.6 | 0.00 | 0.02 | 0.02 | 58 | 1011.5 |
| 20260506211204 | 66 | 41 | 7.8 | 8.7 | 0.00 | 0.02 | 0.02 | 58 | 1011.4 |
| 20260506210702 | 66 | 24 | 5.2 | 6.1 | 0.00 | 0.02 | 0.02 | 60 | 1011.4 |
| 20260506210158 | 66 | 16 | 2.6 | 3.5 | 0.00 | 0.02 | 0.02 | 60 | 1011.7 |
| 20260506205656 | 66 | 51 | 6.1 | 8.7 | 0.00 | 0.02 | 0.02 | 61 | 1011.8 |
| 20260506205155 | 64 | 84 | 4.3 | 6.1 | 0.00 | 0.02 | 0.02 | 63 | 1011.7 |
| 20260506204653 | 64 | 31 | 1.7 | 2.6 | 0.00 | 0.02 | 0.02 | 62 | 1012.1 |
| 20260506204150 | 63 | 59 | 3.5 | 5.2 | 0.00 | 0.02 | 0.02 | 64 | 1011.8 |
| 20260506203648 | 63 | 20 | 7.8 | 9.6 | 0.00 | 0.02 | 0.02 | 63 | 1011.9 |
| 20260506203145 | 63 | 13 | 1.7 | 0.9 | 0.00 | 0.02 | 0.02 | 63 | 1012.1 |
| 20260506202643 | 63 | 39 | 2.6 | 3.5 | 0.00 | 0.02 | 0.02 | 66 | 1012.1 |
| 20260506202138 | 62 | 46 | 2.6 | 2.6 | 0.00 | 0.02 | 0.02 | 68 | 1012.2 |
| 20260506201636 | 62 | 100 | 2.6 | 3.5 | 0.00 | 0.02 | 0.02 | 66 | 1012.4 |
| 20260506201132 | 61 | 346 | 1.7 | 0.9 | 0.00 | 0.02 | 0.02 | 66 | 1012.4 |
| 20260506200629 | 61 | 47 | 4.3 | 5.2 | 0.00 | 0.02 | 0.02 | 66 | 1012.4 |
| 20260506200126 | 61 | 39 | 3.5 | 3.5 | 0.00 | 0.02 | 0.02 | 66 | 1012.5 |
| 20260506195622 | 61 | 351 | 3.5 | 3.5 | 0.00 | 0.02 | 0.02 | 66 | 1012.4 |
| 20260506195119 | 62 | 16 | 7.8 | 8.7 | 0.00 | 0.02 | 0.02 | 66 | 1012.5 |
| 20260506194616 | 60 | 49 | 3.5 | 3.5 | 0.00 | 0.02 | 0.02 | 68 | 1012.5 |
| 20260506194112 | 60 | 35 | 3.5 | 5.2 | 0.00 | 0.02 | 0.02 | 68 | 1012.7 |
| 20260506193610 | 60 | 23 | 6.1 | 6.1 | 0.00 | 0.02 | 0.02 | 68 | 1012.9 |
| 20260506193108 | 60 | 32 | 4.3 | 5.2 | 0.00 | 0.02 | 0.02 | 68 | 1012.8 |
| 20260506192604 | 60 | 41 | 3.5 | 3.5 | 0.00 | 0.02 | 0.02 | 69 | 1012.6 |
| 20260506192100 | 61 | 23 | 3.5 | 3.5 | 0.00 | 0.02 | 0.02 | 67 | 1012.7 |
| 20260506191557 | 60 | 45 | 1.7 | 5.2 | 0.00 | 0.02 | 0.02 | 68 | 1012.7 |
| 20260506191053 | 61 | 12 | 5.2 | 6.1 | 0.00 | 0.02 | 0.02 | 68 | 1013.0 |
| 20260506190550 | 61 | 8 | 6.1 | 7.0 | 0.00 | 0.02 | 0.02 | 67 | 1013.0 |
| 20260506190047 | 60 | 1 | 6.1 | 7.0 | 0.00 | 0.02 | 0.02 | 68 | 1013.0 |
| 20260506185544 | 60 | 10 | 8.7 | 9.6 | 0.00 | 0.02 | 0.02 | 68 | 1012.9 |
| 20260506185041 | 59 | 23 | 5.2 | 6.1 | 0.00 | 0.02 | 0.02 | 70 | 1013.1 |
| 20260506184538 | 59 | 21 | 7.0 | 7.0 | 0.00 | 0.02 | 0.02 | 69 | 1013.1 |
| 20260506184035 | 59 | 334 | 7.0 | 7.0 | 0.00 | 0.02 | 0.02 | 70 | 1013.1 |
| 20260506183531 | 58 | 348 | 2.6 | 2.6 | 0.00 | 0.02 | 0.02 | 72 | 1013.3 |
| 20260506183028 | 58 | 68 | 5.2 | 6.1 | 0.00 | 0.02 | 0.02 | 72 | 1013.3 |
| 20260506182526 | 57 | 35 | 7.0 | 8.7 | 0.00 | 0.02 | 0.02 | 73 | 1013.3 |
| 20260506182022 | 57 | 12 | 6.1 | 7.0 | 0.00 | 0.02 | 0.02 | 74 | 1013.2 |
| 20260506181520 | 56 | 29 | 6.1 | 7.0 | 0.00 | 0.02 | 0.02 | 75 | 1013.3 |
| 20260506181017 | 56 | 28 | 4.3 | 5.2 | 0.00 | 0.02 | 0.02 | 75 | 1013.2 |
| 20260506180514 | 56 | 346 | 6.1 | 8.7 | 0.00 | 0.02 | 0.02 | 75 | 1013.6 |
| 20260506180010 | 56 | 28 | 7.8 | 8.7 | 0.00 | 0.02 | 0.02 | 76 | 1013.6 |
| 20260506175507 | 56 | 17 | 4.3 | 5.2 | 0.00 | 0.02 | 0.02 | 76 | 1013.7 |
| 20260506175003 | 56 | 15 | 7.0 | 8.7 | 0.00 | 0.02 | 0.02 | 76 | 1013.4 |
| 20260506174502 | 55 | 28 | 5.2 | 6.1 | 0.00 | 0.02 | 0.02 | 77 | 1013.6 |
| 20260506173958 | 55 | 6 | 3.5 | 6.1 | 0.00 | 0.02 | 0.02 | 77 | 1013.7 |
| 20260506173456 | 55 | 46 | 7.0 | 8.7 | 0.00 | 0.02 | 0.02 | 78 | 1013.8 |
| 20260506172952 | 55 | 13 | 9.6 | 12.2 | 0.00 | 0.02 | 0.02 | 77 | 1013.7 |
| 20260506172450 | 55 | 10 | 8.7 | 9.6 | 0.00 | 0.02 | 0.02 | 77 | 1013.6 |
| 20260506171945 | 54 | 20 | 8.7 | 9.6 | 0.00 | 0.02 | 0.02 | 79 | 1013.6 |
| 20260506171443 | 54 | 28 | 5.2 | 7.0 | 0.00 | 0.02 | 0.02 | 80 | 1013.4 |
| 20260506170941 | 54 | 15 | 7.8 | 11.3 | 0.00 | 0.02 | 0.02 | 79 | 1013.6 |
| 20260506170437 | 54 | 34 | 6.1 | 8.7 | 0.00 | 0.02 | 0.02 | 81 | 1013.4 |
| 20260506165936 | 54 | 47 | 5.2 | 7.0 | 0.00 | 0.02 | 0.02 | 81 | 1013.6 |
| 20260506165434 | 54 | 11 | 9.6 | 12.2 | 0.00 | 0.02 | 0.02 | 80 | 1013.8 |
| 20260506164930 | 53 | 22 | 6.1 | 6.1 | 0.00 | 0.02 | 0.02 | 80 | 1013.3 |
| 20260506164427 | 53 | 27 | 9.6 | 9.6 | 0.00 | 0.02 | 0.02 | 81 | 1013.3 |
| 20260506163925 | 53 | 6 | 7.0 | 8.7 | 0.00 | 0.02 | 0.02 | 80 | 1013.1 |
| 20260506163419 | 53 | 30 | 8.7 | 9.6 | 0.00 | 0.02 | 0.02 | 81 | 1013.3 |
| 20260506162914 | 53 | 19 | 6.1 | 7.0 | 0.00 | 0.02 | 0.02 | 81 | 1013.0 |
| 20260506162413 | 53 | 4 | 7.8 | 11.3 | 0.00 | 0.02 | 0.02 | 81 | 1013.2 |
| 20260506161910 | 53 | 359 | 9.6 | 14.8 | 0.00 | 0.02 | 0.02 | 81 | 1013.1 |
| 20260506161408 | 53 | 19 | 10.4 | 12.2 | 0.00 | 0.02 | 0.02 | 82 | 1012.9 |
| 20260506160905 | 53 | 28 | 7.0 | 9.6 | 0.00 | 0.02 | 0.02 | 82 | 1012.7 |
| 20260506160402 | 53 | 26 | 7.8 | 9.6 | 0.00 | 0.02 | 0.02 | 84 | 1012.6 |
| 20260506155900 | 52 | 41 | 6.1 | 7.0 | 0.00 | 0.02 | 0.02 | 84 | 1012.6 |
| 20260506155356 | 52 | 36 | 8.7 | 11.3 | 0.00 | 0.02 | 0.02 | 84 | 1012.6 |
| 20260506153513 | 51 | 54 | 6.1 | 7.0 | 0.00 | 0.02 | 0.02 | 86 | 1012.6 |
| 20260506153011 | 51 | 30 | 6.1 | 7.0 | 0.00 | 0.02 | 0.02 | 87 | 1012.5 |
| 20260506152507 | 51 | 32 | 8.7 | 11.3 | 0.00 | 0.02 | 0.02 | 86 | 1012.2 |
| 20260506152006 | 51 | 30 | 4.3 | 7.0 | 0.00 | 0.02 | 0.02 | 87 | 1012.9 |
| 20260506151503 | 51 | 15 | 10.4 | 13.0 | 0.00 | 0.02 | 0.02 | 87 | 1012.6 |
| 20260506151000 | 51 | 30 | 5.2 | 7.0 | 0.00 | 0.02 | 0.02 | 88 | 1012.5 |
| 20260506150456 | 50 | 24 | 6.1 | 7.0 | 0.00 | 0.02 | 0.02 | 88 | 1012.2 |
| 20260506145953 | 50 | 18 | 9.6 | 11.3 | 0.00 | 0.02 | 0.02 | 88 | 1012.1 |
| 20260506145449 | 50 | 16 | 11.3 | 15.6 | 0.00 | 0.02 | 0.02 | 88 | 1011.5 |
| 20260506144947 | 50 | 34 | 14.8 | 15.6 | 0.00 | 0.02 | 0.02 | 89 | 1011.5 |
| 20260506144444 | 50 | 18 | 7.0 | 8.7 | 0.00 | 0.02 | 0.02 | 89 | 1011.4 |
| 20260506143942 | 50 | 39 | 10.4 | 14.8 | 0.00 | 0.02 | 0.02 | 89 | 1011.4 |
| 20260506143438 | 50 | 22 | 9.6 | 9.6 | 0.00 | 0.02 | 0.02 | 89 | 1011.2 |
| 20260506142937 | 50 | 23 | 7.8 | 8.7 | 0.00 | 0.02 | 0.02 | 90 | 1011.0 |
| 20260506142435 | 50 | 25 | 10.4 | 12.2 | 0.00 | 0.02 | 0.02 | 90 | 1011.1 |
| 20260506141932 | 50 | 36 | 3.5 | 5.2 | 0.00 | 0.02 | 0.02 | 90 | 1011.3 |
| 20260506141430 | 50 | 32 | 7.0 | 7.0 | 0.00 | 0.02 | 0.02 | 90 | 1011.5 |
| 20260506140928 | 50 | 59 | 7.0 | 7.0 | 0.00 | 0.02 | 0.02 | 90 | 1011.4 |
| 20260506140425 | 50 | 36 | 7.8 | 11.3 | 0.00 | 0.02 | 0.02 | 90 | 1011.5 |
| 20260506135922 | 50 | 54 | 7.8 | 11.3 | 0.00 | 0.02 | 0.02 | 91 | 1011.7 |
| 20260506135419 | 50 | 138 | 5.2 | 7.0 | 0.00 | 0.02 | 0.02 | 91 | 1011.5 |
| 20260506134915 | 50 | 25 | 10.4 | 13.0 | 0.05 | 0.02 | 0.02 | 90 | 1011.4 |
| 20260506134411 | 50 | 7 | 8.7 | 12.2 | 0.12 | 0.02 | 0.02 | 90 | 1011.4 |
| 20260506133909 | 50 | 15 | 8.7 | 11.3 | 0.07 | 0.01 | 0.01 | 90 | 1011.2 |
| 20260506133405 | 50 | 40 | 9.6 | 12.2 | 0.07 | 0.01 | 0.01 | 89 | 1011.9 |
| 20260506132902 | 50 | 6 | 9.6 | 11.3 | 0.00 | 0.00 | 0.00 | 89 | 1013.0 |
| 20260506132359 | 50 | 35 | 4.3 | 5.2 | 0.00 | 0.00 | 0.00 | 88 | 1012.7 |
| 20260506131857 | 50 | 19 | 4.3 | 5.2 | 0.00 | 0.00 | 0.00 | 88 | 1012.2 |
| 20260506131353 | 50 | 37 | 6.1 | 7.0 | 0.00 | 0.00 | 0.00 | 87 | 1012.2 |
| 20260506130850 | 50 | 39 | 3.5 | 5.2 | 0.00 | 0.00 | 0.00 | 87 | 1012.1 |
| 20260506130346 | 51 | 39 | 7.8 | 9.6 | 0.00 | 0.00 | 0.00 | 86 | 1012.1 |
| 20260506125844 | 51 | 19 | 7.8 | 9.6 | 0.00 | 0.00 | 0.00 | 85 | 1012.3 |
| 20260506125343 | 51 | 31 | 7.0 | 8.7 | 0.00 | 0.00 | 0.00 | 85 | 1012.0 |
| 20260506124841 | 51 | 12 | 11.3 | 13.0 | 0.00 | 0.00 | 0.00 | 85 | 1011.1 |
| 20260506124337 | 51 | 34 | 7.0 | 8.7 | 0.00 | 0.00 | 0.00 | 84 | 1011.2 |
| 20260506123835 | 51 | 35 | 5.2 | 8.7 | 0.00 | 0.00 | 0.00 | 83 | 1011.1 |
| 20260506123333 | 51 | 22 | 3.5 | 3.5 | 0.00 | 0.00 | 0.00 | 82 | 1011.7 |
| 20260506122830 | 51 | 40 | 4.3 | 5.2 | 0.00 | 0.00 | 0.00 | 82 | 1011.2 |
| 20260506122327 | 51 | 38 | 6.1 | 8.7 | 0.00 | 0.00 | 0.00 | 82 | 1011.0 |
| 20260506121825 | 51 | 30 | 7.0 | 8.7 | 0.00 | 0.00 | 0.00 | 82 | 1011.1 |
| 20260506121322 | 51 | 40 | 9.6 | 11.3 | 0.00 | 0.00 | 0.00 | 82 | 1010.5 |
| 20260506120819 | 51 | 44 | 10.4 | 12.2 | 0.00 | 0.00 | 0.00 | 82 | 1010.9 |
| 20260506120317 | 51 | 17 | 9.6 | 12.2 | 0.00 | 0.00 | 0.00 | 82 | 1011.1 |
| 20260506115814 | 51 | 23 | 10.4 | 15.6 | 0.00 | 0.00 | 0.00 | 82 | 1011.1 |
| 20260506115313 | 51 | 20 | 7.0 | 8.7 | 0.00 | 0.00 | 0.00 | 82 | 1010.9 |
| 20260506114810 | 51 | 55 | 8.7 | 12.2 | 0.00 | 0.00 | 0.00 | 83 | 1010.3 |
| 20260506114308 | 51 | 49 | 6.1 | 8.7 | 0.00 | 0.00 | 0.00 | 82 | 1010.2 |
| 20260506113806 | 51 | 18 | 9.6 | 12.2 | 0.00 | 0.00 | 0.00 | 83 | 1010.2 |
| 20260506113303 | 51 | 17 | 7.8 | 9.6 | 0.00 | 0.00 | 0.00 | 82 | 1009.7 |
| 20260506112759 | 51 | 28 | 6.1 | 7.0 | 0.00 | 0.00 | 0.00 | 82 | 1009.4 |
| 20260506112257 | 51 | 55 | 7.8 | 12.2 | 0.00 | 0.00 | 0.00 | 82 | 1009.5 |
| 20260506111754 | 51 | 20 | 7.0 | 8.7 | 0.00 | 0.00 | 0.00 | 81 | 1009.6 |
| 20260506111252 | 51 | 6 | 11.3 | 13.0 | 0.00 | 0.00 | 0.00 | 81 | 1009.6 |
| 20260506110749 | 51 | 41 | 9.6 | 13.0 | 0.00 | 0.00 | 0.00 | 81 | 1009.5 |
| 20260506110247 | 51 | 24 | 8.7 | 12.2 | 0.00 | 0.00 | 0.00 | 81 | 1009.4 |
| 20260506105743 | 52 | 27 | 5.2 | 7.0 | 0.00 | 0.00 | 0.00 | 80 | 1009.5 |
| 20260506105240 | 52 | 36 | 7.8 | 9.6 | 0.00 | 0.00 | 0.00 | 80 | 1009.6 |
| 20260506104738 | 52 | 11 | 7.0 | 8.7 | 0.00 | 0.00 | 0.00 | 80 | 1009.5 |
| 20260506104235 | 52 | 10 | 13.0 | 15.6 | 0.00 | 0.00 | 0.00 | 81 | 1009.6 |
| 20260506103732 | 52 | 50 | 6.1 | 6.1 | 0.00 | 0.00 | 0.00 | 81 | 1009.5 |
| 20260506103229 | 52 | 22 | 6.1 | 6.1 | 0.00 | 0.00 | 0.00 | 81 | 1009.2 |
| 20260506102727 | 52 | 31 | 7.8 | 8.7 | 0.00 | 0.00 | 0.00 | 82 | 1009.4 |
| 20260506102225 | 52 | 35 | 7.8 | 13.0 | 0.00 | 0.00 | 0.00 | 82 | 1009.4 |
| 20260506101721 | 52 | 22 | 6.1 | 8.7 | 0.00 | 0.00 | 0.00 | 83 | 1009.3 |
| 20260506101218 | 52 | 37 | 5.2 | 7.0 | 0.00 | 0.00 | 0.00 | 83 | 1009.2 |
| 20260506100716 | 52 | 24 | 8.7 | 12.2 | 0.00 | 0.00 | 0.00 | 84 | 1009.1 |
| 20260506100214 | 52 | 14 | 7.8 | 9.6 | 0.00 | 0.00 | 0.00 | 85 | 1009.0 |
| 20260506095712 | 52 | 30 | 7.0 | 8.7 | 0.00 | 0.00 | 0.00 | 85 | 1008.9 |
| 20260506095209 | 52 | 27 | 7.8 | 11.3 | 0.00 | 0.00 | 0.00 | 85 | 1008.8 |
| 20260506094706 | 52 | 22 | 3.5 | 3.5 | 0.00 | 0.00 | 0.00 | 85 | 1008.6 |
| 20260506094204 | 52 | 28 | 10.4 | 12.2 | 0.00 | 0.00 | 0.00 | 84 | 1008.8 |
| 20260506093703 | 52 | 39 | 5.2 | 7.0 | 0.00 | 0.00 | 0.00 | 84 | 1008.7 |
| 20260506093159 | 52 | 29 | 5.2 | 7.0 | 0.00 | 0.00 | 0.00 | 84 | 1008.8 |
| 20260506092657 | 52 | 20 | 9.6 | 12.2 | 0.00 | 0.00 | 0.00 | 84 | 1008.6 |
| 20260506092154 | 53 | 35 | 5.2 | 7.0 | 0.00 | 0.00 | 0.00 | 84 | 1008.4 |
| 20260506091652 | 53 | 39 | 6.1 | 11.3 | 0.00 | 0.00 | 0.00 | 84 | 1008.3 |
| 20260506091149 | 53 | 24 | 7.8 | 8.7 | 0.00 | 0.00 | 0.00 | 83 | 1008.6 |
| 20260506090647 | 53 | 12 | 13.9 | 14.8 | 0.00 | 0.00 | 0.00 | 83 | 1008.4 |
| 20260506090143 | 53 | 20 | 5.2 | 7.0 | 0.00 | 0.00 | 0.00 | 83 | 1008.5 |
| 20260506085640 | 53 | 16 | 7.0 | 7.0 | 0.00 | 0.00 | 0.00 | 83 | 1008.6 |
| 20260506085136 | 53 | 52 | 3.5 | 3.5 | 0.00 | 0.00 | 0.00 | 83 | 1008.3 |
| 20260506084633 | 54 | 17 | 5.2 | 6.1 | 0.00 | 0.00 | 0.00 | 82 | 1008.3 |
| 20260506084130 | 54 | 16 | 2.6 | 3.5 | 0.00 | 0.00 | 0.00 | 82 | 1008.2 |
| 20260506083627 | 54 | 30 | 9.6 | 9.6 | 0.00 | 0.00 | 0.00 | 82 | 1008.1 |
| 20260506083124 | 54 | 35 | 4.3 | 6.1 | 0.00 | 0.00 | 0.00 | 81 | 1008.0 |
| 20260506082621 | 54 | 8 | 7.8 | 9.6 | 0.00 | 0.00 | 0.00 | 81 | 1008.3 |
| 20260506082116 | 55 | 26 | 5.2 | 7.0 | 0.00 | 0.00 | 0.00 | 81 | 1008.4 |
| 20260506081615 | 55 | 32 | 4.3 | 5.2 | 0.00 | 0.00 | 0.00 | 80 | 1008.0 |
| 20260506081112 | 55 | 23 | 6.1 | 8.7 | 0.00 | 0.00 | 0.00 | 80 | 1008.3 |
| 20260506080610 | 55 | 30 | 7.0 | 8.7 | 0.00 | 0.00 | 0.00 | 80 | 1008.4 |
| 20260506080106 | 55 | 40 | 8.7 | 11.3 | 0.00 | 0.00 | 0.00 | 79 | 1008.3 |
| 20260506073050 | 57 | 12 | 7.0 | 9.6 | 0.00 | 0.00 | 0.00 | 76 | 1008.3 |
| 20260506072547 | 57 | 30 | 4.3 | 6.1 | 0.00 | 0.00 | 0.00 | 76 | 1008.2 |
| 20260506072045 | 58 | 21 | 5.2 | 6.1 | 0.00 | 0.00 | 0.00 | 75 | 1008.3 |
| 20260506071542 | 58 | 44 | 6.1 | 8.7 | 0.00 | 0.00 | 0.00 | 74 | 1008.2 |
| 20260506071039 | 59 | 30 | 5.2 | 6.1 | 0.00 | 0.00 | 0.00 | 74 | 1008.3 |
| 20260506070536 | 59 | 38 | 4.3 | 5.2 | 0.00 | 0.00 | 0.00 | 73 | 1008.5 |
| 20260506062514 | 60 | 53 | 4.3 | 5.2 | 0.00 | 0.00 | 0.00 | 70 | 1008.1 |
| 20260506062010 | 60 | 41 | 5.2 | 6.1 | 0.00 | 0.00 | 0.00 | 69 | 1007.8 |
| 20260506061506 | 61 | 39 | 3.5 | 3.5 | 0.00 | 0.00 | 0.00 | 69 | 1008.0 |
| 20260506061004 | 61 | 51 | 1.7 | 2.6 | 0.00 | 0.00 | 0.00 | 68 | 1007.7 |
| 20260506060503 | 61 | 64 | 3.5 | 3.5 | 0.00 | 0.00 | 0.00 | 68 | 1007.6 |
| 20260506050931 | 64 | 51 | 3.5 | 6.1 | 0.00 | 0.00 | 0.00 | 63 | 1007.4 |
| 20260506050429 | 64 | 45 | 2.6 | 3.5 | 0.00 | 0.00 | 0.00 | 62 | 1007.5 |